Location: Burgwalden
(48.2830°N, 10.7576°E)
Time: 02:55:20
(UTC+00:00)

IRS-P3 - Pass Details

Date: 26 September 2023
Orbit: 812 x 818 km, 99.0° (Epoch: 04 December)

Event Time Altitude Azimuth Distance (km) Brightness Sun altitude
Rises 04:34:19 0° 12° (NNE) 3,362 7.6 -6.5°
Reaches altitude 10° 04:36:41 10° 9° (N) 2,425 6.8 -6.1°
Maximum altitude 04:41:57 61° 291° (WNW) 931 4.2 -5.3°
Drops below altitude 10° 04:47:12 10° 212° (SSW) 2,406 6.2 -4.4°
Sets 04:49:33 0° 209° (SSW) 3,333 7.0 -4.0°
